Montpelier, VT

1:27 AM EDT on October 21, 2017 (GMT -0400)
Knapp State

Weather History for KMPV - April, 2013

Change the Weather History Date:

Tuesday, April 2, 2013

  Actual Average Record
Temperature  
Mean Temperature 26 °F 36 °F  
Max Temperature 31 °F 46 °F 78 °F (2010)
Min Temperature 21 °F 26 °F 7 °F (1964)
Degree Days  
Heating Degree Days 39 29  
Month to date heating degree days 69 58  
Since 1 July heating degree days 6682 7083  
Cooling Degree Days 0 0  
Month to date cooling degree days 0 0  
Year to date cooling degree days 0 0  
Moisture  
Dew Point 11 °F    
Average Humidity 58    
Maximum Humidity 77    
Minimum Humidity 39    
Precipitation  
Precipitation T in 0.09 in 1.68 in (1970)
Month to date precipitation 0.16 0.17  
Year to date precipitation 3.29 7.05  
Sea Level Pressure  
Sea Level Pressure 29.83 in    
Wind  
Wind Speed 12 mph (West)    
Max Wind Speed 25 mph    
Max Gust Speed 38 mph    
Visibility 9 miles    
Events Snow    
T = Trace of Precipitation, MM = Missing Value Source: NWS Daily Summary

Daily Weather History Graph

Daily Weather History Graph

Search for Another Location

Airport or City:

Trip Planner

Search our weather history database for the weather conditions in past years. The results will help you decide how hot, cold, wet, or windy it might be!

Date:

Astronomy

Apr. 02, 2013 Rise Set
Actual Time 6:29 AM EDT 7:18 PM EDT
Civil Twilight 5:59 AM EDT 7:48 PM EDT
Nautical Twilight 5:25 AM EDT 8:23 PM EDT
Astronomical Twilight 4:48 AM EDT 8:59 PM EDT
Moon 1:30 AM EDT (4/2) 11:08 AM EDT (4/2)
Length of Visible Light 13h 48m
Length of Day
12h 49m
Waning Gibbous, 56% of the Moon is Illuminated
Apr 2
Waning Gibbous
Apr 3
Last Quarter
Apr 10
New
Apr 18
First Quarter
Apr 25
Full

Hourly Weather History & Observations

Time (EDT) Temp. Windchill Dew Point Humidity Pressure Visibility Wind Dir Wind Speed Gust Speed Precip Events Conditions
12:51 AM 26.1 °F 14.5 °F 10.0 °F 51% 29.80 in 10.0 mi West 13.8 mph 23.0 mph 0.00 in   Overcast
1:51 AM 24.8 °F 13.4 °F 8.6 °F 50% 29.76 in 10.0 mi West 12.7 mph 18.4 mph N/A   Overcast
2:51 AM 24.1 °F 16.0 °F 8.1 °F 51% 29.81 in 10.0 mi Variable 6.9 mph - N/A   Scattered Clouds
3:51 AM 21.2 °F 13.6 °F 15.8 °F 80% 29.76 in 10.0 mi NW 5.8 mph - N/A   Overcast
4:51 AM 21.0 °F 16.2 °F 14.0 °F 74% 29.81 in 10.0 mi West 3.5 mph - N/A   Partly Cloudy
5:51 AM 21.9 °F 9.8 °F 6.1 °F 51% 29.82 in 10.0 mi West 12.7 mph 19.6 mph N/A   Mostly Cloudy
6:51 AM 21.9 °F 11.7 °F 7.0 °F 53% 29.83 in 10.0 mi WNW 9.2 mph 24.2 mph N/A   Overcast
7:51 AM 21.9 °F 10.4 °F 6.1 °F 51% 29.85 in 10.0 mi West 11.5 mph 19.6 mph N/A   Overcast
8:51 AM 24.8 °F 15.3 °F 6.8 °F 46% 29.80 in 10.0 mi WSW 9.2 mph 19.6 mph N/A   Scattered Clouds
9:51 AM 24.1 °F 11.0 °F 6.1 °F 46% 29.85 in 10.0 mi West 16.1 mph 28.8 mph N/A   Overcast
10:51 AM 26.1 °F 15.6 °F 6.1 °F 43% 29.84 in 10.0 mi WSW 11.5 mph 19.6 mph N/A   Overcast
11:51 AM 27.0 °F 16.1 °F 7.0 °F 43% 29.83 in 10.0 mi West 12.7 mph 25.3 mph N/A   Overcast
12:51 PM 28.4 °F 18.5 °F 10.4 °F 47% 29.77 in 10.0 mi West 11.5 mph 24.2 mph N/A   Overcast
1:51 PM 30.2 °F 21.9 °F 10.4 °F 44% 29.75 in 10.0 mi West 9.2 mph 21.9 mph N/A   Overcast
2:51 PM 28.0 °F 14.9 °F 10.0 °F 47% 29.81 in 8.0 mi West 19.6 mph 27.6 mph N/A   Overcast
3:51 PM 28.0 °F 16.1 °F 8.1 °F 43% 29.81 in 10.0 mi West 16.1 mph 25.3 mph 0.00 in   Overcast
4:51 PM 28.0 °F 18.1 °F 7.0 °F 41% 29.83 in 10.0 mi West 11.5 mph 24.2 mph N/A   Overcast
5:51 PM 27.0 °F 15.6 °F 10.0 °F 49% 29.85 in 10.0 mi West 13.8 mph 31.1 mph N/A   Overcast
6:51 PM 27.0 °F 14.7 °F 10.9 °F 51% 29.86 in 10.0 mi West 16.1 mph 23.0 mph N/A   Overcast
7:51 PM 27.0 °F 18.0 °F 10.9 °F 51% 29.87 in 10.0 mi West 9.2 mph 20.7 mph N/A   Overcast
8:51 PM 27.0 °F 15.6 °F 10.0 °F 49% 29.88 in 10.0 mi West 13.8 mph 26.5 mph N/A   Overcast
9:51 PM 27.0 °F 15.6 °F 12.9 °F 56% 29.90 in 10.0 mi West 13.8 mph 25.3 mph N/A   Overcast
10:36 PM 24.8 °F 12.9 °F 17.6 °F 74% 29.85 in 2.5 mi West 13.8 mph 25.3 mph 0.00 in Snow Light Snow
10:51 PM 25.0 °F 14.8 °F 17.1 °F 72% 29.91 in 5.0 mi West 10.4 mph 18.4 mph 0.00 in Snow Light Snow
11:11 PM 24.8 °F 12.4 °F 15.8 °F 69% 29.85 in 6.0 mi West 15.0 mph 24.2 mph 0.00 in Snow Light Snow
11:30 PM 24.8 °F 13.4 °F 15.8 °F 69% 29.86 in 4.0 mi West 12.7 mph 26.5 mph 0.00 in Snow Light Snow
11:51 PM 25.0 °F 13.6 °F 16.0 °F 69% 29.91 in 6.0 mi West 12.7 mph 25.3 mph 0.00 in Snow Light Snow